This is the latest recevied weather packets stored in our database for station/object W8DRH-13. If no packets are shown the sender has not sent any weather packets the latest 10 day(s).
| Time | Temp. | Humidity | Pressure | Rain* | Wind** | Luminosity | Snow |
|---|---|---|---|---|---|---|---|
| 1777984416 | 15.56° C | 81% | 1004.9 hPa | 0 mm | - | 88 W/m² | - |
| 1777984112 | 15.56° C | 82% | 1004.6 hPa | 0 mm | - | 104 W/m² | - |
| 1777983810 | 15° C | 82% | 1004.7 hPa | 0 mm | - | 115 W/m² | - |
| 1777983506 | 15° C | 83% | 1004.7 hPa | 0 mm | - | 116 W/m² | - |
| 1777983204 | 15° C | 83% | 1004.2 hPa | 0 mm | - | 104 W/m² | - |
| 1777982899 | 15° C | 83% | 1004.5 hPa | 0 mm | - | 85 W/m² | - |
| 1777982596 | 15° C | 83% | 1004.4 hPa | 0 mm | - | 70 W/m² | - |
| 1777982294 | 15° C | 83% | 1004.4 hPa | 0 mm | - | 53 W/m² | - |
| 1777981992 | 14.44° C | 83% | 1004.3 hPa | 0 mm | - | 37 W/m² | - |
| 1777981689 | 15° C | 83% | 1004 hPa | 0 mm | - | 32 W/m² | - |
| 1777981385 | 14.44° C | 83% | 1003.6 hPa | 0 mm | - | 26 W/m² | - |
| 1777981077 | 14.44° C | 83% | 1003.3 hPa | 0 mm | - | 25 W/m² | - |
| 1777980773 | 14.44° C | 83% | 1003.4 hPa | 0 mm | - | 24 W/m² | - |
| 1777980469 | 14.44° C | 83% | 1002.9 hPa | 0 mm | - | 19 W/m² | - |
| 1777980166 | 14.44° C | 83% | 1002.9 hPa | 0 mm | - | 18 W/m² | - |
| 1777979861 | 14.44° C | 83% | 1002.6 hPa | 0 mm | - | 15 W/m² | - |
| 1777979557 | 14.44° C | 83% | 1002.3 hPa | 0 mm | - | 10 W/m² | - |
| 1777979253 | 14.44° C | 83% | 1002.2 hPa | 0 mm | - | 7 W/m² | - |
| 1777978951 | 14.44° C | 82% | 1002.5 hPa | 0 mm | - | 7 W/m² | - |
| 1777978647 | 14.44° C | 82% | 1002.9 hPa | 0 mm | - | 8 W/m² | - |
| 1777978343 | 14.44° C | 82% | 1003.1 hPa | 0 mm | - | 6 W/m² | - |
| 1777978040 | 14.44° C | 82% | 1003.2 hPa | 0 mm | - | 3 W/m² | - |
| 1777977737 | 14.44° C | 82% | 1003 hPa | 0 mm | - | 1 W/m² | - |
| 1777977434 | 14.44° C | 81% | 1003.3 hPa | 0 mm | - | 0 W/m² | - |
| 1777977131 | 14.44° C | 81% | 1003.1 hPa | 0 mm | - | 0 W/m² | - |
* Rain latest hour (hover to see other rain measurements)
** Current wind speed in m/s (hover to see current wind gust speed)